Juneau, AK

5:54 PM AKDT on April 28, 2017 (GMT -0800)
Juneau International

Weather History for PAJN - November, 2014

Change the Weather History Date:

Thursday, November 20, 2014

  Actual Average Record
Temperature  
Mean Temperature 35 °F 32 °F  
Max Temperature 37 °F 37 °F 49 °F (2000)
Min Temperature 33 °F 28 °F 0 °F (1966)
Degree Days  
Heating Degree Days 30 33  
Month to date heating degree days 569 613  
Since 1 July heating degree days 2083 2298  
Moisture  
Dew Point 35 °F    
Average Humidity 96    
Maximum Humidity 100    
Minimum Humidity 92    
Precipitation  
Precipitation T in 0.20 in 1.59 in (1979)
Month to date precipitation 3.17 3.99  
Year to date precipitation 64.13 54.43  
Snow  
Snow 0.00 in 0.60 in 3.30 in (1994)
Month to date snowfall T 7.4  
Since 1 July snowfall T 8.2  
Since 1 September snowfall T 8.2  
Snow Depth 0.00 in    
Sea Level Pressure  
Sea Level Pressure 29.54 in    
Wind  
Wind Speed 1 mph (North)    
Max Wind Speed 7 mph    
Max Gust Speed 7 mph    
Visibility 2 miles    
Events Fog , Rain    
T = Trace of Precipitation, MM = Missing Value Source: NWS Daily Summary

Daily Weather History Graph

Daily Weather History Graph

Search for Another Location

Airport or City:

Trip Planner

Search our weather history database for the weather conditions in past years. The results will help you decide how hot, cold, wet, or windy it might be!

Date:

Astronomy

Nov. 20, 2014 Rise Set
Actual Time 7:58 AM AKST 3:28 PM AKST
Civil Twilight 7:11 AM AKST 4:16 PM AKST
Nautical Twilight 6:21 AM AKST 5:06 PM AKST
Astronomical Twilight 5:34 AM AKST 5:53 PM AKST
Moon 5:32 AM AKST (11/20) 3:02 PM AKST (11/20)
Length of Visible Light 9h 05m
Length of Day
7h 30m
Waning Crescent, 3% of the Moon is Illuminated
Nov 20
Waning Crescent
Nov 22
New
Nov 29
First Quarter
Dec 6
Full
Dec 14
Last Quarter

Hourly Weather History & Observations

Time (AKST) Temp. Windchill Dew Point Humidity Pressure Visibility Wind Dir Wind Speed Gust Speed Precip Events Conditions
12:43 AM 37.0 °F - 37.0 °F 100% 29.73 in 0.2 mi Calm Calm - N/A Fog Fog
12:53 AM 37.0 °F - 37.0 °F 100% 29.73 in 0.2 mi Calm Calm - N/A Fog Fog
1:15 AM 37.0 °F - 37.0 °F 100% 29.73 in 0.2 mi Calm Calm - N/A Fog Fog
1:53 AM 37.0 °F - 36.0 °F 96% 29.72 in 0.5 mi Calm Calm - N/A Fog Fog
2:53 AM 37.0 °F - 36.0 °F 96% 29.71 in 0.5 mi Calm Calm - N/A Fog Fog
3:53 AM 36.0 °F - 36.0 °F 100% 29.69 in 0.5 mi Calm Calm - N/A Fog Fog
4:53 AM 36.0 °F - 35.1 °F 97% 29.68 in 0.5 mi Calm Calm - N/A Fog Fog
5:30 AM 36.0 °F - 36.0 °F 100% 29.68 in 3.0 mi Calm Calm - 0.00 in   Light Drizzle
5:50 AM 35.6 °F - 35.6 °F 100% 29.67 in 2.0 mi Calm Calm - 0.00 in   Light Drizzle
5:53 AM 35.1 °F - 35.1 °F 100% 29.68 in 2.0 mi Calm Calm - 0.00 in   Light Drizzle
5:57 AM 36.0 °F - 35.1 °F 97% 29.67 in 0.8 mi Calm Calm - 0.00 in   Light Drizzle
6:49 AM 35.6 °F - 35.6 °F 100% 29.65 in 0.8 mi Calm Calm - 0.00 in   Overcast
6:53 AM 36.0 °F - 35.1 °F 97% 29.65 in 0.8 mi Calm Calm - 0.00 in   Overcast
7:53 AM 35.1 °F - 35.1 °F 100% 29.63 in 0.5 mi Calm Calm - 0.00 in Fog , Rain Light Rain
8:16 AM 36.0 °F - 35.1 °F 97% 29.62 in 0.5 mi Calm Calm - 0.00 in Fog Fog
8:53 AM 36.0 °F - 36.0 °F 100% 29.62 in 0.5 mi Calm Calm - 0.00 in   Overcast
9:36 AM 37.0 °F - 36.0 °F 96% 29.60 in 1.0 mi Calm Calm - N/A   Overcast
9:53 AM 37.0 °F - 36.0 °F 96% 29.60 in 1.0 mi Calm Calm - N/A   Overcast
10:05 AM - - - N/A% - 3.7 mi West 3.5 mph - N/A   Unknown
10:09 AM 35.6 °F - 35.6 °F 100% 29.60 in 1.0 mi Calm Calm - N/A   Overcast
10:25 AM 36.0 °F 33.3 °F 36.0 °F 100% 29.59 in 2.0 mi NW 3.5 mph - N/A   Mostly Cloudy
10:53 AM 37.0 °F - 36.0 °F 96% 29.59 in 2.0 mi Calm Calm - N/A   Overcast
10:58 AM 37.0 °F - 36.0 °F 96% 29.58 in 3.0 mi Calm Calm - N/A   Overcast
11:25 AM 36.0 °F 31.1 °F 36.0 °F 100% 29.58 in 1.5 mi WNW 5.8 mph - N/A   Overcast
11:53 AM 37.0 °F 33.3 °F 36.0 °F 96% 29.58 in 1.5 mi WNW 4.6 mph - N/A   Overcast
12:53 PM 37.0 °F - 36.0 °F 96% 29.55 in 1.5 mi Calm Calm - N/A   Overcast
1:03 PM 37.0 °F - 36.0 °F 96% 29.55 in 7.0 mi Calm Calm - N/A   Overcast
1:22 PM 37.0 °F - 36.0 °F 96% 29.54 in 10.0 mi Calm Calm - N/A   Overcast
1:53 PM 37.0 °F 34.5 °F 36.0 °F 96% 29.53 in 10.0 mi ENE 3.5 mph - N/A   Overcast
2:01 PM 37.0 °F 33.3 °F 36.0 °F 96% 29.52 in 10.0 mi East 4.6 mph - N/A   Overcast
2:20 PM 37.0 °F 32.4 °F 36.0 °F 96% 29.51 in 10.0 mi ENE 5.8 mph - N/A   Overcast
2:53 PM 36.0 °F 33.3 °F 35.1 °F 97% 29.51 in 7.0 mi NE 3.5 mph - N/A   Overcast
3:14 PM 36.0 °F - 35.1 °F 97% 29.50 in 1.5 mi Calm Calm - N/A   Overcast
3:23 PM 36.0 °F - 35.1 °F 97% 29.50 in 0.5 mi Calm Calm - N/A Fog Fog
3:53 PM 36.0 °F - 35.1 °F 97% 29.49 in 1.2 mi Calm Calm - N/A   Overcast
4:10 PM 35.1 °F 32.2 °F 35.1 °F 100% 29.48 in 0.5 mi ENE 3.5 mph - N/A Fog Fog
4:53 PM 35.1 °F - 35.1 °F 100% 29.47 in 0.2 mi Calm Calm - N/A Fog Fog
5:53 PM 34.0 °F 31.0 °F 34.0 °F 100% 29.43 in 0.5 mi NNW 3.5 mph - N/A Fog Fog
6:53 PM 34.0 °F - 34.0 °F 100% 29.42 in 0.5 mi Calm Calm - N/A   Overcast
7:04 PM 34.0 °F - 34.0 °F 100% 29.41 in 0.8 mi Calm Calm - N/A   Overcast
7:21 PM 33.1 °F - 33.1 °F 100% 29.40 in 1.0 mi Calm Calm - N/A   Overcast
7:41 PM 34.0 °F - 34.0 °F 100% 29.39 in 1.0 mi Calm Calm - N/A   Overcast
7:53 PM 34.0 °F - 34.0 °F 100% 29.39 in 1.0 mi Calm Calm - N/A   Overcast
8:15 PM 34.0 °F - 34.0 °F 100% 29.37 in 0.8 mi Calm Calm - N/A   Overcast
8:25 PM 34.0 °F - 34.0 °F 100% 29.37 in 1.0 mi Calm Calm - N/A   Overcast
8:53 PM 34.0 °F - 33.1 °F 96% 29.37 in 1.0 mi Calm Calm - N/A   Overcast
9:28 PM 33.1 °F - 33.1 °F 100% 29.36 in 1.0 mi Calm Calm - N/A   Overcast
9:53 PM 33.1 °F - 33.1 °F 100% 29.35 in 1.0 mi Calm Calm - N/A   Overcast
10:26 PM 33.1 °F - 33.1 °F 100% 29.35 in 3.0 mi Calm Calm - N/A   Overcast
10:53 PM 34.0 °F - 33.1 °F 96% 29.34 in 4.0 mi Calm Calm - N/A   Overcast
11:53 PM 34.0 °F - 33.1 °F 96% 29.33 in 7.0 mi Calm Calm - N/A   Overcast